TIMESTAMP,CO2_1_1_1,H2O_1_1_1,TAU_1_1_1,TAU_SSITC_TEST_1_1_1,H_1_1_1,H_SSITC_TEST_1_1_1,LE_1_1_1,LE_SSITC_TEST_1_1_1,FC_1_1_1,FC_SSITC_TEST_1_1_1,WD_0_0_1,WS_0_0_1,WS_MAX_0_0_1,U_SIGMA_0_0_1,V_SIGMA_0_0_1,W_SIGMA_0_0_1,USTAR_0_0_1,MO_LENGTH_0_0_1,ZL_0_0_1,FETCH_MAX_0_0_1,FETCH_70_0_0_1,FETCH_80_0_0_1,FETCH_90_0_0_1,PA_0_0_1,RH_0_0_1,TA_0_0_1,VPD_0_0_1,T_SONIC_0_0_1,T_SONIC_SIGMA_0_0_1
[yyyymmddHHMMSS],[mmolCO2 mol-1],[mmolH2O mol-1],[kg m-1 s-2],[#],[W m-2],[#],[W m-2],[#],[umolCO2 m-2 s-1],[#],[Decimal degrees],[m s-1],[m s-1],[m s-1],[m s-1],[m s-1],[m s-1],[m],[#],[m],[m],[m],[m],[kPa],[%],[deg C],[hPa],[deg C],[deg C]
20240604003000,411.92794790718364,19.640981480008449,0.30907611752399511,0,-5.1230510563416223,0,49.817103472403659,0,-8.4283791088303257,0,131.97659476281794,2.3252870146839668,5.6015742477075028,0.94653618025280040,0.74317436653594648,0.56433668274385773,0.52882735780486390,2406.0281730962824,7.8968318876953044E-003,118.87086049535499,217.33384490197142,260.09310450915160,325.60570307490519,93.594511421440970,80.398666666666671,19.691666666666663,4.4829801377675560,21.031173829820432,9.9295859144383991E-002
20240604010000,414.00660781573652,19.411996927151655,0.30186387245601798,0,-15.550873310378099,1,31.052897821530966,0,-4.5655809365506421,1,135.62814211623584,2.5418406293009883,6.3900727708236857,0.95858332233416488,0.76227426394236597,0.55710070560282210,0.52256010326370994,764.72571082109789,2.4845509613635724E-002,118.96437631414169,217.50482164405418,260.29772000135546,325.86185739058675,93.589153179950969,79.750000000000000,19.632333333333349,4.6143076476805325,20.932158246631957,0.19239795261180270
20240604013000,416.05276720352055,19.522867642392459,0.15934138020860655,0,-32.179843720722481,0,4.6473280198128570,0,1.6314868717822648,1,134.34283985533526,2.4787225169907048,6.0714555808544857,0.81211577189354300,0.67750117901401863,0.47390215237173589,0.37923143928127401,141.25328442131908,0.13451014663367619,104.76770301662550,191.54877505947587,229.23496150641336,286.97496979593421,93.593569111328122,83.569999999999993,18.973000000000013,3.5932981972862241,20.393573642306819,0.27907930144687465
20240604020000,418.70261728394178,19.340979348265499,0.18362952709880331,1,-35.730391106027305,0,2.1075297644060771,2,2.6831997382751780,0,135.36483053674709,2.3208444318558707,5.1684902988658159,0.73657439335053942,0.58871611615431774,0.43550511482710746,0.40648689912986119,156.67501276308170,0.12127013532611684,118.49432033858007,216.64540940406329,259.26922304703515,324.57430124966618,93.608371065104166,87.203333333333333,18.146333333333359,2.6575007739968215,19.602933032565716,0.27572118081550911
20240604023000,421.12767447357209,19.258626406675845,0.14927996026653509,1,-30.869700170453356,0,-0.92064874259170726,1,4.6544335137077670,0,138.12151464291313,2.4049087335930497,5.3517118674192226,0.67423702423710219,0.58950823240832373,0.42933893235827825,0.36603123140175997,132.45105004447578,0.14344922138118182,110.21207943071170,201.50283153922345,241.14742481117270,301.88796026917333,93.652617875293444,90.223333333333329,17.545333333333360,1.9549409755651663,19.016755523664642,0.23826501588094171
20240604030000,422.07882061675883,19.313268260516644,0.29230931405698901,0,-51.897393940594483,0,-0.51697066726935559,2,6.4846423227493837,0,133.55445826486249,2.7540986026045471,6.7760113060901546,0.92980036158763790,0.77823080930584898,0.59120255140961420,0.51182141175003271,215.43915631500388,8.8191953240938203E-002,111.57338786778249,203.99173752924654,244.12600960577066,305.61679498028030,93.676750995659717,92.583333333333329,17.185666666666691,1.4497062774560050,18.663920748392741,0.18178313744901375
20240604033000,423.28400058675743,19.627518357206430,0.25624788484817573,0,-31.455926246369138,0,0.52194982214209151,2,6.3372724174719020,0,132.15155448875623,2.8179092542616506,7.4215881972819320,0.97006524294899710,0.74964243707115141,0.57421668132847470,0.47923137514890080,291.79145182666923,6.5114998678187569E-002,108.35038296945272,198.09905665040941,237.07397560549904,296.78848523673696,93.676768733723961,94.153333333333336,17.175000000000011,1.1420533908844959,18.686842525906059,0.12562793375666248
20240604040000,424.45226483518491,19.941050234132060,0.38530002807515051,0,-20.372940836817360,0,-2.3710031680038521,2,6.9237848485757558,0,128.93764329848776,2.7559951503127857,6.9529364414746695,1.0583241157785501,0.83406874247563112,0.66293998845251367,0.58794012450335953,831.79388844409971,2.2842197164420361E-002,113.74753834912036,207.96677801886341,248.88311783233502,311.57212998094121,93.648117122178817,94.613333333333330,17.343666666666650,1.0634848684641112,18.865746927897135,8.1240583858721613E-002
20240604043000,424.04390484300257,20.130095731873276,0.45243733517465989,0,-10.587933515719833,0,1.5914052557883656,1,8.5246819432828804,0,137.75515121017764,2.9510106943910119,8.5207971850065718,1.2253567108919099,0.98658336614312681,0.74009383759327407,0.63734227872234306,2038.4434173601039,9.3208375754702290E-003,111.10245419561907,203.13072057994066,243.09559222424880,304.32683469238953,93.619737360460078,94.850000000000009,17.448666666666668,1.0235277735029922,18.976530620998801,6.3825653314618869E-002
20240604050000,424.80091622225871,20.232767773363488,0.49622289447475693,0,-3.1254255497390679,0,-1.4345057732840392,1,7.6527729483895524,0,138.59034972958713,3.0568128378142183,7.9958024166682868,1.3560163783348245,0.94238530500826334,0.71977906720482399,0.66744627991916183,7930.6159717547234,2.3957785962237270E-003,117.87686674824721,215.51650731421253,257.91821557110063,322.88300020617532,93.610039529513884,95.700000000000003,17.386333333333312,0.85123745095752845,18.918008777194586,4.9319783355875738E-002
20240604053000,425.03544864163240,20.346672972876213,0.40033990738528602,0,-5.9915479240019787,0,-0.17225596864327569,2,8.5506684557454964,0,143.61244373626818,2.9498377502734887,7.4007576305638851,1.2160289482999609,0.97115221626012782,0.74087664271514031,0.59949008797683290,2997.6716366499254,6.3382525850074825E-003,105.70214067786863,193.25722512783480,231.27953989400308,289.53453931869905,93.610403109809042,96.393333333333331,17.360999999999990,0.71284155174114860,18.920114151000973,5.6277097567475752E-002
20240604060000,425.80232305237627,20.449446396396166,0.31714506825292860,0,-3.9118798886834223,0,0.76103605894455606,2,7.2837462671443545,0,147.93051969209603,2.4310194947492501,7.4308678352362110,1.0823995270439126,0.84870828286580646,0.63974497113365814,0.53350593800762725,3236.1497080557842,5.8711746099703250E-003,108.28313010671083,197.97609696811679,236.92682427013582,296.60426922647491,93.613951061631951,97.356666666666669,17.283999999999992,0.51990602065961189,18.816218667772091,5.9272173825351507E-002
20240604063000,427.25384333374166,20.500284913224970,0.20203977432910988,0,-5.2967408745707685,0,-2.0702687352411959,2,8.3793142528411693,0,157.53643837998951,1.9026036855419801,5.3586853773499765,0.83880472652981886,0.65929256525933377,0.52053573042800660,0.42579606990206209,1215.1676818852495,1.5635702202450613E-002,106.62419915257620,194.94304209506771,233.29703224011965,292.06020033168602,93.625929294270833,97.640000000000001,17.279333333333341,0.46404142288453842,18.761666458129923,5.8952582167313944E-002
20240604070000,428.56912383835510,20.548200700391352,0.14536224122131503,0,-6.0224648350802381,0,0.56697925691182494,0,6.1540899883858922,0,158.17758522673296,1.8189624094983514,4.9942730821124917,0.75221256142238735,0.63247390015596561,0.45986394544524539,0.36125424327741457,652.67616990037618,2.9110914227035652E-002,103.22901338015882,188.73555966412516,225.86826118341608,282.76026049873536,93.622466810980896,97.106666666666669,17.402333333333331,0.57334995409746170,18.865594592624291,6.9926979751364721E-002
20240604073000,430.07973588160081,20.457649188378152,0.17382794577737268,1,-11.062370172113621,0,-0.54727283223859513,1,5.7669954944386319,0,137.19178607141728,1.7859886036665824,4.3409347827344575,0.71623371874816744,0.59288365363060347,0.45005060296292115,0.39506182419991215,464.68465493074177,4.0887943680498397E-002,112.81786410647386,206.26703699891357,246.84896195136895,309.02560819968960,93.617978039930563,96.549999999999997,17.422666666666657,0.68453913260647148,18.898623032463945,5.9998772724121900E-002
20240604080000,432.16580907080186,20.454307258343146,0.25932573509180623,0,-5.7818345809169562,0,-1.0873333455678360,2,4.8552279493192536,0,135.41082932045552,1.9712925450587311,5.7154339620704482,0.91495208876605261,0.74215000733007119,0.51092757907542707,0.48244966866423400,1619.2063888753848,1.1734143423925343E-002,119.59940886557354,218.66586368131598,261.68719078568387,327.60130993196458,93.618427257812499,97.146666666666675,17.322666666666635,0.56258377403186610,18.870494951036278,5.0900556386559360E-002
20240604083000,433.77903523578800,20.584772720552184,0.24604029279941211,0,-6.3271920834628510,0,-0.59853544975122674,1,6.2591381722229444,0,137.78151808003076,2.1157590872358676,5.9809571125071912,0.90657306414343519,0.74152704992757501,0.53841015902971878,0.46985712184705408,1366.9398626280299,1.3899660489431684E-002,112.28893282724611,205.29998192650598,245.69164401900892,307.57678348071659,93.630911654513881,98.179999999999993,17.257999999999981,0.35737993683896091,18.802310045878130,4.1339901202441603E-002
20240604090000,433.59283628496405,20.666584550783469,0.18031835447410582,1,-4.2636270768740365,0,-1.4500686776901803,1,6.2049661196921555,0,141.63885918615355,1.8270271453954245,4.8404503189188688,0.72818972599876908,0.64684542348438634,0.48672558219107126,0.40223585477821139,1272.8466702711353,1.4927171075486034E-002,107.50092112629602,196.54596947915962,235.21532692551133,294.46167764466816,93.643993580512145,98.403333333333336,17.286999999999978,0.31410117686933520,18.822722924126538,5.0053627787649956E-002
20240604093000,433.47671918693430,20.693548679513391,0.20581492744028670,0,-8.2321568344854725,0,0.62160813808149584,2,6.0458135062356240,0,140.03849656613531,2.0291313044058965,4.7699334198262457,0.81059499088965759,0.59314609710662269,0.49292639662970844,0.42974955141727450,803.99349754792217,2.3632031923078459E-002,112.20225490729798,205.14150704433612,245.50199006010126,307.33935922932164,93.645391988715275,98.390000000000001,17.310000000000002,0.31718510133014205,18.863195149739624,4.9768921692760301E-002
20240604100000,435.21459999085266,20.670597731111393,0.17542258831452018,0,-8.3858314980921840,0,-0.42887589131058407,1,6.6992785892124882,0,140.65688208541556,1.9048269984143826,5.0174247098429552,0.76737467468157061,0.60672162956977083,0.46432945805468417,0.39673909222454956,621.01087395306843,3.0595277469224934E-002,110.40732973574433,201.85981136871399,241.57463849315224,302.42278110399201,93.649110817057306,98.319999999999993,17.304333333333318,0.33085719584127449,18.850541194491939,5.8657026640251200E-002
20240604103000,436.89256806940398,20.709935226071678,0.16321419857206712,0,-9.4616378729969668,0,-1.1214592546734086,1,7.8282579575163647,0,143.28164112669685,1.6674319514085505,4.0989331393284498,0.75278636024020884,0.60909663969504524,0.46526958432137050,0.38268738080104525,494.01174182529866,3.8460624295685510E-002,107.09433115866015,195.80259334310207,234.32569555156482,293.34796473198634,93.660426318576384,98.303333333333327,17.338999999999999,0.33487261480805730,18.860156926472996,5.9463310045002368E-002
20240604110000,436.74128543504617,20.879208428404855,0.18878680560996539,0,-6.2345883781614937,0,0.27399902835456363,1,4.2059829059449028,0,141.71711849582843,1.8979913463351250,4.9289276968165359,0.86288173292394355,0.58865208032727567,0.47480295870524269,0.41170636519493375,933.56642680030268,2.0352060072597548E-002,111.71570530311971,204.25193919086095,244.43740453829145,306.00662448432939,93.661813618272575,98.060000000000002,17.507333333333349,0.38699282487690878,18.976186592102067,6.5413800688802523E-002
20240604113000,435.67734858275242,20.852181476739009,0.12115636294909622,0,-10.166042782672312,0,-1.5574402379624228,1,0.84033817156291579,0,138.62330936389145,1.6641353799006264,3.9454016944723795,0.67410795535406531,0.53486346688827890,0.37637427139634450,0.32983656207142847,294.38958585190409,6.4540326537088036E-002,112.66732770971788,205.99180845452233,246.51958367808376,308.61326568698428,93.658695067491323,97.773333333333341,17.532666666666671,0.44488817645278461,19.007637402852424,7.3292481147177596E-002
20240604120000,432.91125218294462,21.027801123660460,8.7417388076030819E-002,0,3.5223142084854540,0,-0.11485899673310243,2,-2.5667751789457802,0,138.35734156693263,2.0558151439123922,4.6926394411247205,0.67513892440161616,0.59004399982891020,0.38926251766181702,0.28030923929100710,-521.51850982401345,-3.6432072193202797E-002,96.287688319688968,176.04460363150460,210.68042812776721,263.74689576689627,93.656264115885406,97.003333333333330,17.790666666666652,0.60855375854852134,19.242006726582872,9.2369378677075425E-002
20240604123000,428.87634771843676,21.025370348006295,0.21465889845845337,0,15.117581442395226,1,13.534020164932979,0,-5.9612099054436642,0,132.80682957465442,2.5081699107463113,6.0320531501666244,0.90192383194945236,0.77546526156162188,0.54013095953970025,0.43967640940574843,-468.86854837609860,-4.0523084915389383E-002,106.20920900402513,194.18430774919688,232.38902101156813,290.92347802207161,93.639610458333337,93.903333333333336,18.302666666666653,1.2785896184162675,19.740384903801896,0.24498048153769048
20240604130000,427.70257877820126,20.595596761247890,0.38207922447649084,0,29.514040822802126,0,24.810107566695212,0,-7.7321947321331059,0,139.96339346685880,2.7821903400339019,7.4702491950261960,1.2388974775029753,0.96403283721431465,0.67637608333329091,0.58678424984688660,-570.77183421992538,-3.3288257865714987E-002,111.76017273801277,204.33323984400644,244.53470065563008,306.12842767766006,93.625764224392370,90.843333333333334,18.499333333333311,1.9441536202626708,19.945763825310621,0.12814095704037623
20240604133000,425.83228920250986,20.712953564236248,0.35033150418091213,0,68.233028914121022,0,50.687041669975237,0,-13.449587795138193,0,143.76079060312063,2.0054660629596430,6.2233607280860577,1.0798365910296086,0.76253544313285626,0.62649511446516115,0.56223509548293338,-217.21173173728138,-8.7472255057478160E-002,114.82993262428583,209.94573996581414,251.25142984890127,314.53697559155472,93.642639730468758,89.056666666666672,18.910666666666657,2.3840499522100300,20.340585488213492,0.26238706553682151
20240604140000,425.11261828701288,20.599762210439092,0.44818621263935726,0,71.804423106896095,0,74.484747696667299,0,-11.723617781835857,0,150.21584097201577,2.4912137628626128,7.3083103260898383,1.3588435420679295,1.0193604744954834,0.68747466528596668,0.63623936844234441,-299.07964033655236,-6.3528229399431618E-002,117.69173680760061,215.17803073854432,257.51314555814946,322.37590061731680,93.630313280034599,87.129999999999995,19.171333333333337,2.8497449705217379,20.555977967956778,0.22330605090005573
20240604143000,422.83219646556574,20.664523450803141,0.42972315146377205,0,73.854887709267828,0,92.296788910923354,0,-10.725379265753636,0,149.09301828835711,2.8214385601780161,7.3001084511362739,1.3703990277545364,1.1507607706852740,0.73363668111488545,0.62332393874705716,-273.47447324742637,-6.9476319944529977E-002,109.91098876883157,200.95234178136525,240.48862916806235,301.06322629953411,93.651519992404516,85.453333333333333,19.537666666666667,3.2952713549498025,20.906045500013533,0.30036280742410809
20240604150000,421.58564748018892,20.543849551515443,0.52461276554306757,0,155.49643310794272,0,159.75782170960571,0,-13.409518575377330,0,139.35557418603673,2.7425649893530228,8.6051828916779218,1.4601693890014231,1.3630023999597269,0.75328686621703400,0.68952490609464678,-175.78915291824970,-0.10808402955804618,116.66122963928572,213.29393497146046,255.25836412972342,319.55318183102514,93.625067346788200,81.726333333333329,20.158000000000015,4.3018387994427671,21.524437680562414,0.61440475043590848
20240604153000,419.64037423153013,20.862147309055270,0.48773066931107439,0,179.06220023207689,0,202.72784521550719,0,-10.836288023237437,0,111.42291789421063,2.2458972002018465,6.8232708297914435,1.3637684571975319,1.0664685693729548,0.71418666821317578,0.66644923055252370,-137.84917009197372,-0.13783180549671134,118.47293984434711,216.60631904164657,259.22244186704023,324.51573676356929,93.627435171440979,76.199666666666673,21.546666666666681,6.1025111481268528,22.876151390075734,0.49627979165177322
20240604160000,418.61921300299559,20.817356208333763,0.53399212818272912,0,257.29871182221467,0,194.31406320364937,0,-17.241235057511823,0,100.35112273710844,2.9367581720814782,7.6332833345358369,1.2545266894316092,1.1368648277591473,0.77338181467337841,0.69807178094461886,-110.22803213838701,-0.17236994647737372,115.36120956542335,210.91708365630325,252.41388016177658,315.99222544190241,93.603650767361103,73.510999999999996,22.095666666666659,7.0234108320494126,23.438062540690169,0.59233299298662456
20240604163000,418.00898685167300,21.446117493487865,0.46896528303336937,0,215.54575281965992,0,196.47440588208715,0,-11.766891527985333,0,121.54698970364970,2.4780286084781036,8.0693759603911985,1.3759234616498668,1.5468290759211678,0.83332246265544185,0.65572268103745013,-109.06331539960705,-0.17421073190727940,103.36668621034636,188.98726950620511,226.16949357679511,283.13736770970968,93.594010955384931,70.049666666666667,23.380333333333340,8.5843774836527640,24.803154868971490,0.70718097454798290
20240604170000,418.40969614143694,21.463682793384478,0.67723078750787635,0,257.66982495895354,0,214.06355137061223,0,-13.727473383763504,0,153.41343885444971,2.9770094713993753,8.5370320302257205,1.5814115593955602,1.1172203627230382,0.94002969628108046,0.78927727768829947,-159.07219550455281,-0.11944262125593282,108.87428630815027,199.05691904394840,238.22029224909633,298.22353764763943,93.564419137390232,66.484999999999999,24.257333333333349,10.126211571556748,25.576496003464229,0.57825110222788212
20240604173000,418.00096214044657,21.693843527658441,0.80163832407548463,0,266.47938951742884,0,230.94421835024229,0,-11.497249419740184,0,142.26608765527919,3.3305412408238810,9.3928551577966726,1.7056290330145014,1.5690150990467253,1.0084526057487895,0.85973040921982713,-198.76462582029018,-9.5590449867968677E-002,110.20983100519750,201.49872070028496,241.14250518688624,301.88180148335056,93.541305868055559,64.806333333333328,24.859333333333325,11.023093145432091,26.140157343546548,0.55053230747928139
20240604180000,416.78363351671527,21.834066893543472,0.51432533377780754,0,255.90996490488882,0,234.08709348363615,0,-11.139122452575775,0,153.04924808176230,3.0389751063695267,8.5529724461089707,1.4828709601795291,1.3080927288040740,0.93843509719346896,0.68960071946073132,-106.79760225160959,-0.17790661587361287,97.861004891716192,178.92112810875466,214.12289325243290,268.05645360520555,93.517694057725691,62.396999999999998,25.600333333333310,12.308459200145093,26.869785859849799,0.53642416287677119
20240604183000,416.88087818173886,21.427317501837795,0.78725479398772347,0,253.30177861224053,0,260.58438298940024,0,-14.294796265780068,0,143.56427106059482,3.8015925444168395,11.048579823681127,1.9794404523447637,1.6088007443541694,0.97764443178218341,0.85363754132060599,-204.59066660869291,-9.2868361567734897E-002,112.33858776675750,205.39076699256350,245.80029055625036,307.71279605287577,93.480459578124993,60.296999999999997,25.853999999999985,13.192671295536721,27.025803331163218,0.55120966104830293
20240604190000,416.08573572257467,21.761272095039313,0.93733247085014249,0,203.95606738521369,0,316.20149197156366,0,-14.197262485836481,0,136.14990818115200,3.2771654377404387,10.931047170651730,1.8757416321272788,1.5078587672986556,1.0202359227762561,0.93207548380971073,-330.75503688200172,-5.7444325501771067E-002,116.48105054896170,212.96451012917467,254.86412672978602,319.05964338821525,93.467676486979158,60.086666666666666,26.172333333333313,13.514565650134346,27.473502351548916,0.56452199871839748
20240604193000,415.95511269878625,21.987197199672675,0.69393386640892529,0,180.67628855580486,0,286.97720687805571,0,-12.470144964816503,0,139.00748932808204,2.5906813855322821,8.2284768647259394,1.4928065678650173,1.3614058095205253,0.97104907702600152,0.80210243620851107,-237.92057007061271,-7.9858584713213193E-002,107.45974961283397,196.47069482157025,235.12524238579269,294.34890249076079,93.448546035156255,60.681333333333335,26.177000000000021,13.316882463822290,27.504073769463503,0.48407841642644789
20240604200000,416.38853235343345,22.115092940684228,0.87764900129950740,0,208.44585597150399,0,291.90206171754892,0,-8.4479806963993767,0,141.63545692262431,3.5523544098900612,10.590401372869483,1.8833652411042359,1.5766332951579596,1.0616565625026544,0.90282279076303473,-293.96491682950636,-6.4633563096305163E-002,109.98910596992346,201.09516493916465,240.65955201040478,301.27720141570450,93.395679657118066,59.831000000000003,26.504999999999995,13.870649373133702,27.747928616841591,0.46912402006103532
20240604203000,416.13405255226479,22.045165655281654,1.2365755418847872,0,184.51317950647476,0,238.32974506389516,0,-12.203427933946998,0,140.20165351512341,4.0749791176178185,11.784562338515149,2.0620596698272227,1.7889613517614360,1.2042403952532550,1.0715702446644726,-555.24607649355312,-3.4219062149862138E-002,114.05146373460278,208.52245055555534,249.54811593800912,312.40462869769931,93.388356256424686,59.845999999999997,26.445666666666682,13.817079731299387,27.643758404415905,0.42727745543797324
20240604210000,416.15976636767709,22.300488963755015,1.3227974123764805,0,71.517615877023459,0,130.53759630429664,0,-9.4960636367104740,0,138.26113227387120,4.4819831488653090,13.056931067478667,2.0349063728520487,1.7863769798060793,1.2275019567438410,1.1072410311617784,-1580.1266071332134,-1.2024352931105473E-002,115.30041812492883,210.80593751464374,252.28086661733084,315.82570826821774,93.362707971068616,63.015000000000001,25.762666666666689,12.223230094139717,27.113765987968122,0.46081628561681842
20240604213000,416.77815634573255,22.954259370362891,1.2122655167913063,0,-46.793832934581843,1,116.32105336354621,1,-2.0220209279453587,0,139.05619392064011,4.2589153285624919,12.964277290100936,2.0124815884215428,1.6391209818483325,1.1543635472298677,1.0579004255223581,2106.7152329476153,9.0187794263091297E-003,116.77144380767761,213.49544162228696,255.49951612524600,319.85507551328260,93.375600857204844,69.674999999999997,24.562333333333356,9.3311894188702631,26.165598342895464,0.24369249337316340
20240604220000,416.55279847534666,23.327548780586774,1.0052189910397020,0,-33.509563498136615,1,65.090632819031256,0,-0.44462492229907397,1,142.99813399093142,4.0679029000986606,11.180255260456514,2.0037526727413346,1.6413988634435737,1.1318092775117288,0.96219521117800888,2213.3349736867631,8.5843309873478418E-003,109.96306920768437,201.04756143379220,240.60258277257884,301.20588269016213,93.358899451171879,74.265666666666661,23.764333333333354,7.5485953816671829,25.456333296034074,0.22590925091016639
20240604223000,416.68640905214033,22.959126723978933,0.58289206240287728,0,-24.347571375659957,1,37.114385153580187,0,0.84396559201182053,1,150.26225042359030,3.2320915239968979,9.7729414134198915,1.5589461374861975,1.1085682874878824,0.87697109295015063,0.73159371154036879,1338.6640219104918,1.4193255132743393E-002,108.31351461471587,198.03164953939182,236.99330650962733,296.68749710124877,93.337136613715302,77.269000000000005,22.839999999999975,6.3057909399155827,24.520765563964915,0.36279591313303805